EW2295 Weather Reports


time (UTC)temp
C
wind
direction
speed
KPH
gust
KPH
rain 1hr
cm
rain 24hr
cm
rain mn
cm
humidity
%
barometer
mb
20260902180106 18 0 0.0 0.0 0.00 0.00 0.00 74 1020.9
20260902175543 18 0 0.0 0.0 0.00 0.00 0.00 74 1020.9
20260902175045 18 0 0.0 0.0 0.00 0.00 0.00 73 1020.9
20260902174604 18 0 0.0 0.0 0.00 0.00 0.00 73 1020.9
20260902174044 18 0 0.0 0.0 0.00 0.00 0.00 73 1020.8
20260902173545 18 0 0.0 0.0 0.00 0.00 0.00 72 1020.9
20260902173136 18 0 0.0 0.0 0.00 0.00 0.00 72 1020.9
20260902172542 18 0 0.0 0.0 0.00 0.00 0.00 71 1020.8
20260902172043 18 0 0.0 0.0 0.00 0.00 0.00 70 1020.9
20260902171626 18 0 0.0 0.0 0.00 0.00 0.00 69 1020.9
20260902171042 19 0 0.0 0.0 0.00 0.00 0.00 69 1020.9
20260902170542 19 0 0.0 0.0 0.00 0.00 0.00 68 1020.9
20260902170111 19 0 0.0 0.0 0.00 0.00 0.00 68 1020.9
20260902165543 19 0 0.0 0.0 0.00 0.00 0.00 66 1021.0
20260902165044 19 0 0.0 0.0 0.00 0.00 0.00 66 1020.9
20260902164601 19 0 0.0 0.0 0.00 0.00 0.00 66 1020.9
20260902164043 19 0 0.0 3.2 0.00 0.00 0.00 66 1021.0
20260902163542 19 0 0.0 3.2 0.00 0.00 0.00 67 1021.0
20260902163107 19 0 0.0 8.0 0.00 0.00 0.00 66 1021.0
20260902162546 19 0 0.0 12.9 0.00 0.00 0.00 67 1021.1
20260902162045 19 0 0.0 12.9 0.00 0.00 0.00 66 1021.1
20260902161606 19 0 0.0 6.4 0.00 0.00 0.00 66 1021.1
20260902161043 19 0 0.0 6.4 0.00 0.00 0.00 67 1021.1
20260902160542 19 0 0.0 0.0 0.00 0.00 0.00 68 1021.2
20260902160105 19 0 0.0 0.0 0.00 0.00 0.00 66 1021.2
20260902155546 20 0 0.0 0.0 0.00 0.00 0.00 67 1021.1
20260902155045 20 0 0.0 12.9 0.00 0.00 0.00 65 1021.2
20260902154604 20 0 0.0 12.9 0.00 0.00 0.00 64 1021.1
20260902154046 20 0 1.6 12.9 0.00 0.00 0.00 65 1021.1
20260902153546 20 0 3.2 12.9 0.00 0.00 0.00 64 1021.3
20260902153104 20 0 0.0 14.5 0.00 0.00 0.00 64 1021.2
20260902152546 20 234 0.0 14.5 0.00 0.00 0.00 64 1021.2
20260902152046 20 0 3.2 14.5 0.00 0.00 0.00 64 1021.2
20260902151602 20 0 1.6 12.9 0.00 0.00 0.00 63 1021.2
20260902151047 20 236 0.0 16.1 0.00 0.00 0.00 64 1021.3
20260902150546 20 0 4.8 16.1 0.00 0.00 0.00 64 1021.2
20260902150106 20 209 0.0 14.5 0.00 0.00 0.00 63 1021.3
20260902145546 20 249 1.6 14.5 0.00 0.00 0.00 62 1021.4
20260902145045 20 0 1.6 9.7 0.00 0.00 0.00 63 1021.4
20260902144556 20 0 0.0 1.6 0.00 0.00 0.00 63 1021.3
20260902144047 20 0 0.0 9.7 0.00 0.00 0.00 63 1021.3
20260902143550 20 0 1.6 9.7 0.00 0.00 0.00 63 1021.3
20260902143109 20 0 0.0 9.7 0.00 0.00 0.00 62 1021.3
20260902142547 20 0 0.0 8.0 0.00 0.00 0.00 65 1021.2
20260902142047 20 0 1.6 9.7 0.00 0.00 0.00 63 1021.3
20260902141610 20 0 0.0 9.7 0.00 0.00 0.00 62 1021.4
20260902141046 20 0 0.0 12.9 0.00 0.00 0.00 62 1021.2
20260902140547 20 0 0.0 12.9 0.00 0.00 0.00 61 1021.2
20260902135546 20 0 0.0 3.2 0.00 0.00 0.00 60 1021.3
20260902135046 20 0 0.0 11.3 0.00 0.00 0.00 60 1021.1
20260902134558 20 0 0.0 11.3 0.00 0.00 0.00 60 1021.1
20260902134045 20 0 0.0 6.4 0.00 0.00 0.00 60 1021.2
20260902133547 20 0 0.0 11.3 0.00 0.00 0.00 59 1021.1
20260902133106 20 0 0.0 12.9 0.00 0.00 0.00 60 1021.2
20260902132544 20 257 0.0 12.9 0.00 0.00 0.00 58 1021.2
20260902132047 20 0 0.0 16.1 0.00 0.00 0.00 58 1021.2
20260902131628 20 249 4.8 16.1 0.00 0.00 0.00 56 1021.2
20260902131046 21 0 0.0 11.3 0.00 0.00 0.00 59 1021.1
20260902130546 20 0 0.0 11.3 0.00 0.00 0.00 58 1021.2
20260902130059 20 0 0.0 11.3 0.00 0.00 0.00 58 1021.3
20260902125546 21 0 0.0 12.9 0.00 0.00 0.00 60 1021.3
20260902125047 21 0 0.0 12.9 0.00 0.00 0.00 59 1021.3
20260902124609 20 0 0.0 11.3 0.00 0.00 0.00 59 1021.4
20260902124046 21 0 3.2 16.1 0.00 0.00 0.00 60 1021.4
20260902123550 21 0 1.6 16.1 0.00 0.00 0.00 60 1021.5
20260902123152 20 0 6.4 16.1 0.00 0.00 0.00 61 1021.4
20260902122549 20 233 0.0 14.5 0.00 0.00 0.00 62 1021.4
20260902122046 20 0 3.2 14.5 0.00 0.00 0.00 63 1021.5
20260902121602 19 0 0.0 14.5 0.00 0.00 0.00 64 1021.6
20260902121046 19 259 1.6 14.5 0.00 0.00 0.00 65 1021.4
20260902120545 20 223 0.0 9.7 0.00 0.00 0.00 66 1021.4
20260902115548 19 0 1.6 11.3 0.00 0.00 0.00 64 1021.3
20260902115045 20 0 0.0 17.7 0.00 0.00 0.00 63 1021.4
20260902114557 20 0 3.2 17.7 0.00 0.00 0.00 62 1021.4
20260902114044 20 227 3.2 12.9 0.00 0.00 0.00 63 1021.4
20260902113542 20 0 0.0 12.9 0.00 0.00 0.00 63 1021.4
20260902113102 20 242 1.6 12.9 0.00 0.00 0.00 62 1021.4
20260902112544 20 0 3.2 12.9 0.00 0.00 0.00 60 1021.5
20260902112043 19 195 0.0 20.9 0.00 0.00 0.00 64 1021.5
20260902111602 19 0 0.0 20.9 0.00 0.00 0.00 63 1021.4
20260902111042 20 0 4.8 20.9 0.00 0.00 0.00 62 1021.4
20260902110542 20 238 3.2 16.1 0.00 0.00 0.00 62 1021.4
20260902110111 20 0 1.6 17.7 0.00 0.00 0.00 63 1021.4
20260902105545 20 229 6.4 20.9 0.00 0.00 0.00 63 1021.5
20260902105042 20 0 1.6 20.9 0.00 0.00 0.00 63 1021.4
20260902104608 20 219 1.6 14.5 0.00 0.00 0.00 66 1021.5
20260902104045 20 0 1.6 12.9 0.00 0.00 0.00 63 1021.5
20260902103541 20 224 0.0 11.3 0.00 0.00 0.00 64 1021.4
20260902103103 19 0 0.0 11.3 0.00 0.00 0.00 66 1021.5
20260902102542 18 0 0.0 16.1 0.00 0.00 0.00 65 1021.5
20260902102042 18 0 0.0 19.3 0.00 0.00 0.00 64 1021.5
20260902101558 18 225 4.8 19.3 0.00 0.00 0.00 66 1021.5
20260902101046 18 0 1.6 11.3 0.00 0.00 0.00 68 1021.5
20260902100546 19 0 0.0 12.9 0.00 0.00 0.00 64 1021.5
20260902095546 19 0 1.6 11.3 0.00 0.00 0.00 68 1021.4
20260902095044 19 0 0.0 8.0 0.00 0.00 0.00 72 1021.3
20260902094605 19 0 0.0 8.0 0.00 0.00 0.00 71 1021.4
20260902094045 18 0 0.0 8.0 0.00 0.00 0.00 72 1021.4
20260902093542 19 0 0.0 8.0 0.00 0.00 0.00 69 1021.5
20260902093100 19 0 0.0 3.2 0.00 0.00 0.00 74 1021.5
20260902092545 18 0 0.0 4.8 0.00 0.00 0.00 74 1021.6
20260902092042 18 0 0.0 8.0 0.00 0.00 0.00 74 1021.5
20260902091610 18 0 0.0 11.3 0.00 0.00 0.00 74 1021.5
20260902091045 18 218 0.0 11.3 0.00 0.00 0.00 73 1021.4
20260902090549 18 0 0.0 0.0 0.00 0.00 0.00 74 1021.5
20260902090109 18 0 0.0 0.0 0.00 0.00 0.00 74 1021.5
20260902085546 18 0 0.0 0.0 0.00 0.00 0.00 74 1021.5
20260902085046 18 0 0.0 0.0 0.00 0.00 0.00 74 1021.5
20260902084555 18 0 0.0 6.4 0.00 0.00 0.00 73 1021.5
20260902084046 18 0 0.0 6.4 0.00 0.00 0.00 73 1021.5
20260902083546 18 0 0.0 0.0 0.00 0.00 0.00 73 1021.5
20260902083058 18 0 0.0 6.4 0.00 0.00 0.00 75 1021.4
20260902082546 18 0 0.0 11.3 0.00 0.00 0.00 75 1021.5
20260902082046 18 0 0.0 11.3 0.00 0.00 0.00 74 1021.6
20260902081601 18 0 0.0 11.3 0.00 0.00 0.00 75 1021.5
20260902081046 18 0 0.0 11.3 0.00 0.00 0.00 76 1021.4
20260902080547 18 0 0.0 9.7 0.00 0.00 0.00 77 1021.4
20260902080100 17 0 1.6 9.7 0.00 0.00 0.00 79 1021.3
20260902075546 17 0 0.0 0.0 0.00 0.00 0.00 80 1021.2
20260902075047 17 0 0.0 0.0 0.00 0.00 0.00 80 1021.3
20260902074601 17 0 0.0 0.0 0.00 0.00 0.00 83 1021.1
20260902074048 17 0 0.0 0.0 0.00 0.00 0.00 83 1021.1
20260902073546 17 0 0.0 0.0 0.00 0.00 0.00 84 1021.3
20260902073103 17 0 0.0 0.0 0.00 0.00 0.00 83 1021.3
20260902072545 16 0 0.0 0.0 0.00 0.00 0.00 86 1021.2
20260902072048 16 0 0.0 0.0 0.00 0.00 0.00 88 1021.1
20260902071603 16 0 0.0 0.0 0.00 0.00 0.00 87 1021.0
20260902071046 16 0 0.0 0.0 0.00 0.00 0.00 88 1021.0
20260902070545 16 0 0.0 0.0 0.00 0.00 0.00 89 1021.0
20260902065548 15 0 0.0 0.0 0.00 0.00 0.00 91 1020.9
20260902065046 15 0 0.0 0.0 0.00 0.00 0.00 92 1020.8
20260902064606 15 0 0.0 0.0 0.00 0.00 0.00 93 1020.8
20260902064046 14 0 0.0 0.0 0.00 0.00 0.00 93 1020.9
20260902063546 14 0 0.0 0.0 0.00 0.00 0.00 93 1020.8
20260902063104 14 0 0.0 0.0 0.00 0.00 0.00 93 1020.8
20260902062547 14 0 0.0 0.0 0.00 0.00 0.00 94 1020.6
20260902062047 14 0 0.0 0.0 0.00 0.00 0.00 94 1020.8
20260902061627 14 0 0.0 0.0 0.00 0.00 0.00 94 1020.8
20260902061048 14 0 0.0 0.0 0.00 0.00 0.00 94 1020.8
20260902060546 13 0 0.0 0.0 0.00 0.00 0.00 94 1020.8
20260902060115 13 0 0.0 0.0 0.00 0.00 0.00 94 1020.7
20260902055547 13 0 0.0 0.0 0.00 0.00 0.00 95 1020.8
20260902055042 13 0 0.0 0.0 0.00 0.00 0.00 94 1020.9
20260902054555 13 0 0.0 0.0 0.00 0.00 0.00 94 1020.9
20260902054044 13 0 0.0 0.0 0.00 0.00 0.00 94 1020.9
20260902053541 13 0 0.0 0.0 0.00 0.00 0.00 94 1020.8
20260902053102 13 0 0.0 0.0 0.00 0.00 0.00 94 1020.8
20260902052545 13 0 0.0 0.0 0.00 0.00 0.00 94 1020.9
20260902052041 13 0 0.0 0.0 0.00 0.00 0.00 94 1020.7
20260902051558 13 0 0.0 0.0 0.00 0.00 0.00 94 1020.7
20260902051042 13 0 0.0 0.0 0.00 0.00 0.00 94 1020.5
20260902050542 13 0 0.0 0.0 0.00 0.00 0.00 94 1020.6
20260902050059 13 0 0.0 0.0 0.00 0.00 0.00 94 1020.4
20260902045541 13 0 0.0 0.0 0.00 0.00 0.00 94 1020.4
20260902045044 13 0 0.0 0.0 0.00 0.00 0.00 93 1020.5
20260902044558 13 0 0.0 0.0 0.00 0.00 0.00 94 1020.5
20260902044045 13 0 0.0 0.0 0.00 0.00 0.00 94 1020.5
20260902043542 13 0 0.0 0.0 0.00 0.00 0.00 94 1020.5
20260902043106 13 0 0.0 0.0 0.00 0.00 0.00 94 1020.4
20260902042544 13 0 0.0 0.0 0.00 0.00 0.00 94 1020.5
20260902042042 13 0 0.0 0.0 0.00 0.00 0.00 94 1020.6
20260902041601 13 0 0.0 0.0 0.00 0.00 0.00 94 1020.6
20260902041042 12 0 0.0 0.0 0.00 0.00 0.00 94 1020.6
20260902040545 12 0 0.0 0.0 0.00 0.00 0.00 94 1020.6
20260902040100 12 0 0.0 0.0 0.00 0.00 0.00 94 1020.6
20260902035541 12 0 0.0 0.0 0.00 0.00 0.00 93 1020.6
20260902035041 12 0 0.0 0.0 0.00 0.00 0.00 93 1020.8
20260902034611 12 0 0.0 0.0 0.00 0.00 0.00 93 1020.6
20260902034041 12 0 0.0 0.0 0.00 0.00 0.00 94 1020.6
20260902033541 12 0 0.0 0.0 0.00 0.00 0.00 94 1020.6
20260902033100 12 0 0.0 0.0 0.00 0.00 0.00 93 1020.6
20260902032542 12 0 0.0 0.0 0.00 0.00 0.00 93 1020.6
20260902032042 12 0 0.0 0.0 0.00 0.00 0.00 93 1020.5
20260902031604 13 0 0.0 0.0 0.00 0.00 0.00 93 1020.5
20260902031042 13 0 0.0 0.0 0.00 0.00 0.00 93 1020.6
20260902030542 12 0 0.0 0.0 0.00 0.00 0.00 93 1020.7
20260902030105 12 0 0.0 0.0 0.00 0.00 0.00 93 1020.7
20260902025543 12 0 0.0 0.0 0.00 0.00 0.00 93 1020.8
20260902025047 12 0 0.0 0.0 0.00 0.00 0.00 93 1020.9
20260902024605 12 0 0.0 0.0 0.00 0.00 0.00 93 1021.0
20260902024046 12 0 0.0 0.0 0.00 0.00 0.00 94 1021.0
20260902023546 12 0 0.0 0.0 0.00 0.00 0.00 94 1021.1
20260902023103 12 0 0.0 0.0 0.00 0.00 0.00 93 1021.1
20260902022546 12 0 0.0 0.0 0.00 0.00 0.00 93 1021.2
20260902022045 12 0 0.0 0.0 0.00 0.00 0.00 93 1021.1
20260902021630 12 0 0.0 0.0 0.00 0.00 0.00 93 1021.3
20260902021046 12 0 0.0 0.0 0.00 0.00 0.00 93 1021.1
20260902020546 12 0 0.0 0.0 0.00 0.00 0.00 93 1021.0
20260902020107 13 0 0.0 0.0 0.00 0.00 0.00 93 1020.9
20260902015549 13 0 0.0 0.0 0.00 0.00 0.00 93 1021.0
20260902015050 13 0 0.0 0.0 0.00 0.00 0.00 93 1021.0
20260902014614 13 0 0.0 0.0 0.00 0.00 0.00 93 1021.0
20260902014050 13 0 0.0 0.0 0.00 0.00 0.00 93 1021.0
20260902013546 13 0 0.0 0.0 0.00 0.00 0.00 93 1021.0
20260902013059 13 0 0.0 0.0 0.00 0.00 0.00 94 1021.0
20260902012545 13 0 0.0 0.0 0.00 0.00 0.00 94 1021.0
20260902012047 13 0 0.0 0.0 0.00 0.00 0.00 94 1021.3
20260902011557 13 0 0.0 0.0 0.00 0.00 0.00 94 1021.2
20260902011049 13 0 0.0 0.0 0.00 0.00 0.00 94 1021.2
20260902010546 13 0 0.0 0.0 0.00 0.00 0.00 94 1021.1
20260902010108 13 0 0.0 0.0 0.00 0.00 0.00 94 1021.1
20260902005545 13 0 0.0 0.0 0.00 0.00 0.00 95 1021.1
20260902005045 13 0 0.0 0.0 0.00 0.00 0.00 95 1021.2
20260902004603 13 0 0.0 0.0 0.00 0.00 0.00 95 1021.3
20260902004046 12 0 0.0 0.0 0.00 0.00 0.00 95 1021.3
20260902003546 12 0 0.0 0.0 0.00 0.00 0.00 95 1021.3
20260902003103 12 0 0.0 0.0 0.00 0.00 0.00 95 1021.3
20260902002545 12 0 0.0 0.0 0.00 0.00 0.00 95 1021.4
20260902002046 12 0 0.0 0.0 0.00 0.00 0.00 95 1021.2
20260902001556 12 0 0.0 0.0 0.00 0.00 0.00 95 1021.3
20260902001045 12 0 0.0 0.0 0.00 0.00 0.00 94 1021.3
20260902000545 12 0 0.0 0.0 0.00 0.00 0.00 94 1021.3
20260902000108 12 0 0.0 0.0 0.00 0.00 0.00 95 1021.3
20260901235549 12 0 0.0 0.0 0.00 0.00 0.00 95 1021.2
20260901235045 12 0 0.0 0.0 0.00 0.00 0.00 95 1021.1
20260901234605 12 0 0.0 0.0 0.00 0.00 0.00 95 1021.3
20260901234048 12 0 0.0 0.0 0.00 0.00 0.00 95 1021.4
20260901233618 12 0 0.0 0.0 0.00 0.00 0.00 95 1021.5
20260901233110 12 0 0.0 0.0 0.00 0.00 0.00 95 1021.5
20260901232542 12 0 0.0 0.0 0.00 0.00 0.00 95 1021.5
20260901232042 12 0 0.0 0.0 0.00 0.00 0.00 95 1021.5
20260901231607 12 0 0.0 0.0 0.00 0.00 0.00 95 1021.5
20260901231046 12 0 0.0 0.0 0.00 0.00 0.00 95 1021.5
20260901230546 11 0 0.0 0.0 0.00 0.00 0.00 95 1021.7
20260901230105 11 0 0.0 0.0 0.00 0.00 0.00 95 1021.8
20260901225547 12 0 0.0 0.0 0.00 0.00 0.00 95 1021.9
20260901225045 12 0 0.0 0.0 0.00 0.00 0.00 95 1022.0
20260901224605 11 0 0.0 0.0 0.00 0.00 0.00 95 1021.9
20260901224046 11 0 0.0 0.0 0.00 0.00 0.00 95 1022.0
20260901223546 11 0 0.0 0.0 0.00 0.00 0.00 95 1022.1
20260901223109 11 0 0.0 0.0 0.00 0.00 0.00 95 1022.0
20260901222545 11 0 0.0 0.0 0.00 0.00 0.00 95 1022.0
20260901222047 11 0 0.0 0.0 0.00 0.00 0.00 95 1022.1
20260901221607 12 0 0.0 0.0 0.00 0.00 0.00 94 1022.1
20260901221046 12 0 0.0 0.0 0.00 0.00 0.00 94 1022.0
20260901220545 12 0 0.0 0.0 0.00 0.00 0.00 94 1022.0
20260901220107 12 0 0.0 0.0 0.00 0.00 0.00 94 1021.9
20260901215546 12 0 0.0 0.0 0.00 0.00 0.00 94 1021.8
20260901215045 12 0 0.0 0.0 0.00 0.00 0.00 94 1021.9
20260901214601 12 0 0.0 0.0 0.00 0.00 0.00 94 1021.9
20260901214046 12 0 0.0 0.0 0.00 0.00 0.00 94 1022.0
20260901213547 12 0 0.0 0.0 0.00 0.00 0.00 94 1021.9
20260901213102 12 0 0.0 0.0 0.00 0.00 0.00 94 1021.9
20260901212546 12 0 0.0 0.0 0.00 0.00 0.00 94 1021.9
20260901212046 12 0 0.0 0.0 0.00 0.00 0.00 94 1021.8
20260901211603 12 0 0.0 0.0 0.00 0.00 0.00 93 1021.7
20260901211050 12 0 0.0 0.0 0.00 0.00 0.00 93 1021.7
20260901210545 12 0 0.0 0.0 0.00 0.00 0.00 93 1021.7
20260901210114 12 0 0.0 0.0 0.00 0.00 0.00 93 1021.7
20260901205546 12 0 0.0 0.0 0.00 0.00 0.00 93 1021.6
20260901205045 12 0 0.0 0.0 0.00 0.00 0.00 93 1021.7
20260901204559 13 0 0.0 0.0 0.00 0.00 0.00 92 1021.6
20260901204047 13 0 0.0 0.0 0.00 0.00 0.00 92 1021.6
20260901203546 13 0 0.0 0.0 0.00 0.00 0.00 92 1021.5
20260901203116 13 0 0.0 0.0 0.00 0.00 0.00 92 1021.5
20260901202548 13 0 0.0 0.0 0.00 0.00 0.00 91 1021.5
20260901202046 13 0 0.0 0.0 0.00 0.00 0.00 91 1021.6
20260901201602 13 0 0.0 0.0 0.00 0.00 0.00 90 1021.6
20260901201047 13 0 0.0 0.0 0.00 0.00 0.00 90 1021.5
20260901200546 13 0 0.0 0.0 0.00 0.00 0.00 90 1021.6
20260901200105 13 0 0.0 0.0 0.00 0.00 0.00 89 1021.5
20260901195550 14 0 0.0 0.0 0.00 0.00 0.00 89 1021.5
20260901195045 14 0 0.0 0.0 0.00 0.00 0.00 89 1021.5
20260901194615 14 0 0.0 0.0 0.00 0.00 0.00 88 1021.6
20260901194046 14 0 0.0 0.0 0.00 0.00 0.00 88 1021.5
20260901193546 15 0 0.0 0.0 0.00 0.00 0.00 87 1021.5
20260901193106 15 0 0.0 0.0 0.00 0.00 0.00 87 1021.5
20260901192547 15 0 0.0 0.0 0.00 0.00 0.00 86 1021.5
20260901192047 15 0 0.0 0.0 0.00 0.00 0.00 85 1021.6
20260901191608 15 0 0.0 0.0 0.00 0.00 0.00 83 1021.7
20260901191048 15 0 0.0 0.0 0.00 0.00 0.00 82 1021.6
20260901190545 15 0 0.0 0.0 0.00 0.00 0.00 81 1021.6
20260901190115 15 0 0.0 0.0 0.00 0.00 0.00 80 1021.6
20260901185548 16 0 0.0 0.0 0.00 0.00 0.00 80 1021.6
20260901185049 16 0 0.0 0.0 0.00 0.00 0.00 79 1021.6
20260901184601 16 0 0.0 0.0 0.00 0.00 0.00 79 1021.5
20260901184045 16 0 0.0 0.0 0.00 0.00 0.00 78 1021.5
20260901183545 16 0 0.0 0.0 0.00 0.00 0.00 79 1021.4
20260901183107 16 0 0.0 0.0 0.00 0.00 0.00 78 1021.4
20260901182546 16 0 0.0 0.0 0.00 0.00 0.00 77 1021.4
20260901182046 17 0 0.0 0.0 0.00 0.00 0.00 78 1021.4
20260901181605 17 0 0.0 0.0 0.00 0.00 0.00 78 1021.3
20260901181046 17 0 0.0 0.0 0.00 0.00 0.00 79 1021.2
20260901180545 17 0 0.0 0.0 0.00 0.00 0.00 79 1021.3